Location: Hamilton
(37.7830°S, 175.2830°E)
Time: 17:14:01
(UTC+12:00)

Cosmos 1356 - Pass Details

Date: 24 January 2019
Orbit: 449 x 450 km, 81.1° (Epoch: 18 April)

Event Time Altitude Azimuth Distance (km) Brightness Sun altitude
Exits shadow 22:14:33 33° 89° (E) 796 4.2 -16.7°
Drops below altitude 10° 22:17:41 10° 151° (SSE) 1,612 6.4 -17.1°
Sets 22:19:54 0° 161° (SSE) 2,495 7.5 -17.5°
